Flag for Brazil Weather past 2 weeks in Rio de Janeiro, Rio de Janeiro, Brazil

Now
72 °F

Sunny.


Feels Like: 69 °F
Forecast: 71 / 88 °F
Wind: 2 mph from Northeast

Location: Rio De Janeiro Airport

Current Time: Sep 19, 2014 at 7:17:04 AM

Latest Report: Sep 19, 2014 at 6:00 AM


Visibility: 10 mi

Pressure: 29.92 "Hg

Humidity: 88%

Dew point: 68 °F

Location of Rio de JaneiroLocation

Historic Weather in Rio de Janeiro — Graph

°F

Rio de Janeiro temperature yesterday

Maximum temperature yesterday: 79 °F (at 2:00 PM)
Minimum temperature yesterday: 68 °F (at 6:00 AM)
Average temperature yesterday: 74 °F

Past Weeks' High & Low Weather Summary

 TemperatureHumidityPressure
High91 °F (Sep 11, 2:00 PM)94% (Sep 4, 6:00 AM)30.33 "Hg (Sep 4, 6:00 AM)
Low64 °F (Sep 5, 6:00 AM)30% (Sep 15, 2:00 PM)29.80 "Hg (Sep 15, 3:00 PM)
Average74 °F71%30.06 "Hg
* Reported Sep 4 6:00 AM — Sep 19 6:00 AM, Rio de Janeiro, Weather by CustomWeather, © 2014

Note: Actual official high and low records may vary slightly from our data, if they occured in-between our weather recording intervals... More about our weather records

Advertising

Rio de Janeiro weather history for previous 24 hours

 ConditionsComfort  
Time TempWeatherWind HumidityBarometerVisibility
6:00 AM
Sep 19
72 °FSunny.2 mph88%29.92 "Hg10 mi
11:00 PM
Sep 18
72 °FPassing clouds.6 mph94%29.98 "HgN/A
10:00 PM72 °FPassing clouds.2 mph94%30.01 "HgN/A
9:00 PM72 °FPassing clouds.6 mph88%29.98 "HgN/A
8:00 PM73 °FPassing clouds.7 mph83%29.98 "HgN/A
7:00 PM73 °FClear.7 mph83%29.95 "Hg10 mi
6:00 PM73 °FPassing clouds.7 mph83%29.95 "HgN/A
5:00 PM75 °FPassing clouds.12 mph78%29.98 "HgN/A
4:00 PM77 °FPassing clouds.9 mph74%29.98 "HgN/A
3:00 PM77 °FScattered clouds.15 mph74%29.95 "HgN/A
2:00 PM79 °FPassing clouds.9 mph70%29.98 "HgN/A
1:00 PM77 °FPassing clouds.16 mph74%30.01 "HgN/A
12:00 PM77 °FPassing clouds.15 mph74%30.04 "HgN/A
11:00 AM77 °FPassing clouds.8 mph74%30.07 "HgN/A
10:00 AM75 °FScattered clouds.6 mph74%30.09 "HgN/A
9:00 AM73 °FPartly sunny.2 mph78%30.09 "HgN/A
8:00 AM72 °FPartly sunny.3 mph83%30.12 "HgN/A
7:00 AM72 °FPartly sunny.3 mph83%30.09 "Hg4 mi
Weather by CustomWeather, © 2014

See weather overviewHow to use our weather pages